COSMOS 86

Satellite information

Favourite Embed

Satellite Type and Status

PAYLOADIN ORBIT

Key statistics

Satellite COSMOS 86 at a glance.

Uptime

21961

Days in orbit

Revolutions

≈ 12.5

Per day

Orbit

LEO

Low Earth Orbit

Inclination

56.1

Latest

Satellite identification and parameters

Extended collection of information and parameters for COSMOS 86.

Object identification

Identified? True

Debris? False

Object name: COSMOS 86

International designator: 1965-073A

Object number (NORAD): 1584

Object ID (CCSDS): 1584

Country: COMMONWEALTH OF INDEPENDENT STATES (CIS)

Current information (Y/N): Y

RCS size: MEDIUM

Orbital parameters

Period: 115.024 minutes

Inclination: 56.0611 deg

SMA: 7834.634 km

Apoapsis: 1623.225 km

Periapsis: 1289.773 km

RAAN: 34.4522 deg

Eccentricy: 0.0212806

Argument of periapsis: 337.1973 deg

Mean anomaly: 110.5876 deg

Mean motion: 12.51914614 rev/day

Mean motion (dot): -0.00000097 rev/day2

B* drag term: -0.0000050756 1/REarth

Two-line elements (TLE)

Creation date: Nov. 2, 2025, 3:46 p.m.

Reference frame: TEME

Reference center: EARTH

Epoch: Nov. 2, 2025, 12:40 p.m. UTC

TLE line 0: 0 COSMOS 86

TLE line 1: 1 1584U 65073A 25306.52846970 -.00000097 00000-0 -50756-5 0 9992

TLE line 2: 2 1584 56.0611 34.4522 0212806 337.1973 110.5876 12.51914614749069

Live tracking on map

Real-time ground track for satellite COSMOS 86.

In-orbit conjunctions

There are no conjunctions computed for COSMOS 86, at the moment. Check back to stay up to date, as we update our databases every day.

Go to all conjunctions

Associated space launch

The Strela-1 satellites were prototype store-dump communications satellites for tactical communication.

COSMOS 86 was lifted into orbit during the mission ‘Kosmos 65S3 | Strela-1 25 to 29’, on board a Kosmos 65S3 space rocket.

The launch took place on Sept. 18, 1965, 7:59 a.m. from 41/15.

For more information about the launch, click the button.

Launch to space Kosmos 65S3 | Strela-1 25 to 29
Kosmos 65S3 | Strela-1 25 to 29

Agency: N/A

Status: Launch Successful

Launch date: Sept. 18, 1965, 7:59 a.m. UTC

Rocket: Kosmos 65S3

Launch pad: 41/15

Location: Baikonur Cosmodrome, Republic of Kazakhstan

...

Latest news about this satellite

There are no fresh news available about this satellite. Check back as we update our databases every day.


Newsletter sign-up

Weekly statistics, charts and insights to help you stay on top of the space industry.